Weather History for Saranac Lake, NY

Change the Weather History Date:

Thursday, February 2, 2012

  Actual Average Record
Temperature  
Mean Temperature 19 °F 13 °F  
Max Temperature 27 °F 26 °F 50 °F (1968)
Min Temperature 11 °F 1 °F -28 °F (1993)
Degree Days  
Heating Degree Days 46 52  
Month to date heating degree days 76 104  
Since 1 July heating degree days 4571 5406  
Moisture  
Dew Point 15 °F    
Average Humidity 82    
Maximum Humidity 92    
Minimum Humidity 71    
Precipitation  
Precipitation T in 0.06 in 2.43 in (1981)
Month to date precipitation 0.06 0.12  
Year to date precipitation 2.39 2.25  
Sea Level Pressure  
Sea Level Pressure 30.11 in    
Wind  
Wind Speed 3 mph (NNW)    
Max Wind Speed 12 mph    
Max Gust Speed 16 mph    
Visibility 6 miles    
Events Snow    
T = Trace of Precipitation, MM = Missing Value Source: NWS Daily Summary

Daily Weather History Graph

Daily Weather History Graph

Search for Another Location

Airport:

Trip Planner

Search our weather history database for the weather conditions in past years. The results will help you decide how hot, cold, wet, or windy it might be!

Date:

Astronomy

Feb. 02, 2012 Rise Set
Actual Time 7:14 AM EST 5:06 PM EST
Civil Twilight 6:43 AM EST 5:37 PM EST
Nautical Twilight 6:08 AM EST 6:12 PM EST
Astronomical Twilight 5:34 AM EST 6:46 PM EST
Moon 12:11 PM EST (2/2) 2:58 AM EST (2/2)
Length of Visible Light 10h 54m
Length of Day
9h 52m
Waxing Gibbous, 73% of the Moon is Illuminated
Feb 2
Waxing Gibbous
Feb 7
Full
Feb 14
Last Quarter
Feb 21
New
Feb 29
First Quarter

Hourly Weather History & Observations

Time (EST) Temp. Windchill Dew Point Humidity Pressure Visibility Wind Dir Wind Speed Gust Speed Precip Events Conditions
12:51 AM 25.0 °F 19.3 °F 21.9 °F 88% 30.01 in 7.0 mi Variable 4.6 mph - N/A   Overcast
1:12 AM 24.8 °F 16.9 °F 21.2 °F 86% 29.96 in 10.0 mi Variable 6.9 mph - N/A   Overcast
1:51 AM 24.1 °F 18.2 °F 21.0 °F 88% 30.03 in 7.0 mi Variable 4.6 mph - N/A   Overcast
2:08 AM 24.8 °F 20.5 °F 21.2 °F 86% 29.98 in 9.0 mi Variable 3.5 mph - N/A   Overcast
2:34 AM 23.0 °F 17.0 °F 19.4 °F 86% 29.99 in 9.0 mi Variable 4.6 mph - N/A   Overcast
2:51 AM 23.0 °F 18.4 °F 19.0 °F 85% 30.05 in 10.0 mi Variable 3.5 mph - N/A   Overcast
3:51 AM 21.9 °F - 18.0 °F 85% 30.05 in 10.0 mi Calm Calm - N/A   Overcast
4:51 AM 21.9 °F 15.7 °F 18.0 °F 85% 30.05 in 10.0 mi Variable 4.6 mph - N/A   Overcast
5:21 AM 21.2 °F - 19.4 °F 93% 29.99 in 10.0 mi Calm Calm - N/A   Overcast
5:51 AM 21.9 °F 17.2 °F 18.0 °F 85% 30.05 in 10.0 mi North 3.5 mph - N/A   Overcast
6:51 AM 21.0 °F 14.6 °F 18.0 °F 88% 30.05 in 7.0 mi North 4.6 mph - N/A   Overcast
7:51 AM 21.0 °F - 17.1 °F 85% 30.07 in 5.0 mi Calm Calm - N/A   Overcast
8:33 AM 21.2 °F - 17.6 °F 86% 30.02 in 2.0 mi Calm Calm - 0.00 in Snow Light Snow
8:40 AM 21.2 °F - 15.8 °F 80% 30.03 in 1.5 mi Calm Calm - 0.00 in Snow Light Snow
8:51 AM 21.0 °F 14.6 °F 16.0 °F 81% 30.09 in 1.5 mi North 4.6 mph - 0.00 in   Haze
9:30 AM 21.2 °F - 15.8 °F 80% 30.03 in 1.2 mi Calm Calm - 0.00 in   Haze
9:51 AM 21.0 °F - 15.1 °F 78% 30.09 in 1.2 mi Calm Calm - 0.00 in   Haze
10:26 AM 21.2 °F 16.4 °F 15.8 °F 80% 30.03 in 3.0 mi Variable 3.5 mph - N/A   Haze
10:51 AM 21.0 °F - 16.0 °F 81% 30.11 in 5.0 mi Calm Calm - N/A   Haze
11:36 AM 21.2 °F 16.4 °F 15.8 °F 80% 30.03 in 5.0 mi Variable 3.5 mph - 0.00 in   Haze
11:51 AM 21.9 °F 17.2 °F 15.1 °F 75% 30.10 in 4.0 mi Variable 3.5 mph - 0.00 in   Haze
12:30 PM 21.2 °F 14.9 °F 15.8 °F 80% 30.03 in 2.5 mi Variable 4.6 mph - 0.00 in Snow Light Snow
12:37 PM 21.2 °F 14.9 °F 15.8 °F 80% 30.03 in 3.0 mi WNW 4.6 mph - 0.00 in   Haze
12:51 PM 21.9 °F - 16.0 °F 78% 30.10 in 7.0 mi Calm Calm - 0.00 in   Overcast
1:51 PM 23.0 °F 17.0 °F 15.1 °F 72% 30.10 in 7.0 mi North 4.6 mph - N/A   Overcast
2:51 PM 21.9 °F 17.2 °F 15.1 °F 75% 30.12 in 10.0 mi NNW 3.5 mph - N/A   Overcast
3:51 PM 21.0 °F 14.6 °F 14.0 °F 74% 30.14 in 10.0 mi NW 4.6 mph - N/A   Overcast
4:51 PM 19.0 °F 12.3 °F 12.9 °F 77% 30.16 in 8.0 mi North 4.6 mph - N/A   Overcast
5:28 PM 17.6 °F 10.7 °F 12.2 °F 79% 30.10 in 8.0 mi NNW 4.6 mph - N/A   Overcast
5:51 PM 17.1 °F 10.0 °F 12.0 °F 81% 30.19 in 7.0 mi Variable 4.6 mph - N/A   Overcast
6:51 PM 17.1 °F 10.0 °F 12.0 °F 81% 30.22 in 5.0 mi NNW 4.6 mph - N/A   Haze
7:51 PM 17.1 °F 11.7 °F 10.9 °F 77% 30.25 in 6.0 mi Variable 3.5 mph - 0.00 in Snow Light Snow
8:21 PM 17.6 °F 12.3 °F 10.4 °F 73% 30.17 in 6.0 mi NNW 3.5 mph - 0.00 in   Haze
8:51 PM 16.0 °F 10.4 °F 10.0 °F 77% 30.27 in 4.0 mi Variable 3.5 mph - 0.00 in   Haze
9:51 PM 16.0 °F - 10.9 °F 81% 30.29 in 4.0 mi Calm Calm - 0.00 in   Haze
10:22 PM 15.8 °F - 10.4 °F 79% 30.21 in 2.0 mi Calm Calm - 0.00 in Snow Light Snow
10:51 PM 14.0 °F - 10.4 °F 86% 30.21 in 4.0 mi Calm Calm - N/A   Overcast
11:11 PM 12.2 °F - 10.4 °F 92% 30.21 in 4.0 mi Calm Calm - N/A   Overcast
11:51 PM 12.0 °F - 9.0 °F 88% 30.31 in 4.0 mi Calm Calm - N/A   Overcast